Regional Weather Roundup
Issued by NWS

Home | Current Version | Previous Version | Text Only | Print | Product List | Glossary On
Versions: 1 2 3 4 5 6 7 8 9 10 11 12 13 14 15 16 17 18 19 20 21 22 23 24 25 26 27 28 29 30 31 32 33 34 35 36 37 38 39 40 41 42 43 44 45 46 47 48 49 50
000
ASUS43 KLSX 200607
RWRMO

WEATHER SUMMARY FOR MISSOURI
NATIONAL WEATHER SERVICE SPRINGFIELD MO
1200 AM CST SAT DEC 20 2014

NOTE: "FAIR" INDICATES FEW OR NO CLOUDS BELOW 12,000 FEET WITH NO
       SIGNIFICANT WEATHER AND/OR OBSTRUCTIONS TO VISIBILITY.
       CURRENT SKY AND/OR WEATHER CONDITIONS ARE NOT AVAILABLE FOR
       CHILLICOTHE AND FARMINGTON.

MOZ001>031-035>038-043-044-053-054-200700-
...NORTHERN AND WESTERN MISSOURI...

CITY           SKY/WX    TMP DP  RH WIND       PRES   REMARKS
KANSAS CTY INT CLOUDY    32  31  96 SW5       30.21R FOG     WCI  27
6HR MIN TEMP:  32; 6HR MAX TEMP:  32; 6HR PCP: TRACE;

KANSAS C DTWN  CLOUDY    34  32  92 W3        30.22S
6HR MIN TEMP:  34; 6HR MAX TEMP:  36;

LEE`S SUMMIT   CLOUDY    35  33  92 W5        30.21S FOG
6HR MIN TEMP:  34; 6HR MAX TEMP:  35;

ST JOSEPH      CLOUDY    31  28  89 SW5       30.22S WCI  26
6HR MIN TEMP:  31; 6HR MAX TEMP:  32;

CHILLICOTHE      N/A     33  32  96 CALM      30.23S
6HR MIN TEMP:  33; 6HR MAX TEMP:  34; 6HR PCP:  0.01;

KIRKSVILLE     CLOUDY    32  30  92 SE7       30.23R FOG     WCI  26
6HR MIN TEMP:  32; 6HR MAX TEMP:  32;


$$
MOZ066>068-077>081-088>096-101>105-200700-
...SOUTHWEST MISSOURI...

CITY           SKY/WX    TMP DP  RH WIND       PRES   REMARKS
SPRINGFIELD    CLOUDY    37  36  96 S7        30.19S
6HR MIN TEMP:  37; 6HR MAX TEMP:  39; 6HR PCP: TRACE;

JOPLIN         CLOUDY    38  38 100 W5        30.21S FOG
6HR MIN TEMP:  38; 6HR MAX TEMP:  39;


$$
MOZ032>034-039>042-045>050-055>058-069>072-200700-
...CENTRAL MISSOURI...

CITY           SKY/WX    TMP DP  RH WIND       PRES   REMARKS
COLUMBIA       CLOUDY    35  32  88 SE7       30.22F FOG     WCI  29
6HR MIN TEMP:  35; 6HR MAX TEMP:  35;

JEFFERSON CITY CLOUDY    36  32  85 E6        30.25S
6HR MIN TEMP:  36; 6HR MAX TEMP:  37;

ROLLA          CLOUDY    34  31  88 SE6       30.21S WCI  29
6HR MIN TEMP:  34; 6HR MAX TEMP:  35;

SEDALIA        FOG       37  35  92 SE5       30.22S VSB 1/2
6HR MIN TEMP:  36; 6HR MAX TEMP:  37;

WHITEMAN AFB   CLOUDY    36  35  96 SE3       30.21S FOG
WARRENSBURG    CLOUDY    36  34  93 SE3       30.21F FOG
OSAGE BEACH    CLOUDY    37  34  87 SE5       30.22S

$$
MOZ051-052-059>065-200700-
...EAST CENTRAL MISSOURI...

CITY           SKY/WX    TMP DP  RH WIND       PRES   REMARKS
ST LOUIS INTL  CLOUDY    36  27  69 SE5       30.28R
6HR MIN TEMP:  36; 6HR MAX TEMP:  37;

SPIRIT OF STL  CLOUDY    35  28  75 CALM      30.27S
6HR MIN TEMP:  35; 6HR MAX TEMP:  36;

ST CHARLES     CLOUDY    34  29  82 CALM      30.28R
6HR MIN TEMP:  34; 6HR MAX TEMP:  35;


$$
MOZ072>076-082>087-097>100-106>115-200700-
...SOUTH CENTRAL AND SOUTHEAST MISSOURI...

CITY           SKY/WX    TMP DP  RH WIND       PRES   REMARKS
CAPE GIRARDEAU CLOUDY    36  30  79 CALM      30.28R
6HR MIN TEMP:  35; 6HR MAX TEMP:  39;

FARMINGTON     CLOUDY    34  32  93 CALM      30.26S
6HR MIN TEMP:  34; 6HR MAX TEMP:  36;

POPLAR BLUFF   CLOUDY    36  32  85 N6        30.26F
6HR MIN TEMP:  36; 6HR MAX TEMP:  38; 6HR PCP: TRACE;

WEST PLAINS    CLOUDY    34  31  88 SE5       30.23S WCI  30
6HR MIN TEMP:  34; 6HR MAX TEMP:  36;


$$


USA.gov is the U.S. government's official web portal to all federal, state and local government web resources and services.